LiveATC.Net - Listen to live air traffic control over the Internet!


ICAO: LMML  IATA: MLA   Airport: Malta International Airport
City: Luqa
Country: Malta   Continent: Europe
LMML METAR Weather: LMML 151845Z 11002KT 9999 SCT018 24/21 Q1022 NOSIG
LMML Flight Activity (FlightAware)
LMML Webcam:  (Airport Webcams) 

LMML Del/Gnd/Twr/App
Feed Status: DOWN
Last heard on: 2019-05-20 08:38:03 (118 days 10 hours 31 minutes ago)
LMML Del/Gnd/Twr/App Audio Archives
FacilityFrequency
Luqa Approach128.150
Luqa Approach/Radar118.350
Luqa Ground121.600
Luqa Tower135.100
Malta Control East123.625
Malta Control West130.975

NOTICE

Unauthorized use prohibited. See LiveATC.net Terms of Service


Airport/ARTCC Code
Frequency Search
(e.g., 124.400, 128.75)
Site-wide search
 


Browse LiveATC Feeds
Top 50 LiveATC Feeds
LiveATC Feed Map
Bad Weather Areas

LiveATC FAQ
Offer LiveATC feed
Contact LiveATC.net
Press Inquiries

LiveATC on iPhone
LiveATC on Android

Windows Phone
Windows 8/10

LiveATC Mobile
(Mobile browser)

ATC Audio Archives
Interesting Recordings

LiveATC Forums


Home Page
About LiveATC.net
Make a Donation
Terms of Use
Privacy Policy

Canadian Air Freqs

AIRMETs/SIGMETs

FAA Airport Status
Nat'l Airspace Status
Arrival Demand Charts


Server Software By:
Icecast.org
Liquidsoap